TimeMDT,TemperatureF,Dew PointF,Humidity,Sea Level PressureIn,VisibilityMPH,Wind Direction,Wind SpeedMPH,Gust SpeedMPH,PrecipitationIn,Events,Conditions,WindDirDegrees,DateUTC
12:53 AM,75.0,46.0,36,29.74,10.0,Calm,Calm,-,N/A,,Clear,0,2013-09-02 06:53:00
1:53 AM,71.1,43.0,36,29.75,10.0,ESE,3.5,-,N/A,,Clear,110,2013-09-02 07:53:00
2:53 AM,71.1,43.0,36,29.75,10.0,SW,3.5,-,N/A,,Clear,230,2013-09-02 08:53:00
3:53 AM,72.0,42.1,34,29.75,10.0,Calm,Calm,-,N/A,,Clear,0,2013-09-02 09:53:00
4:53 AM,70.0,41.0,35,29.76,10.0,Calm,Calm,-,N/A,,Clear,0,2013-09-02 10:53:00
5:53 AM,70.0,43.0,38,29.77,10.0,Calm,Calm,-,N/A,,Clear,0,2013-09-02 11:53:00
6:53 AM,72.0,41.0,33,29.79,10.0,West,4.6,-,N/A,,Clear,280,2013-09-02 12:53:00
7:53 AM,72.0,44.1,37,29.82,10.0,Calm,Calm,-,N/A,,Partly Cloudy,0,2013-09-02 13:53:00
8:53 AM,75.0,44.1,33,29.83,10.0,Calm,Calm,-,N/A,,Clear,0,2013-09-02 14:53:00
9:53 AM,80.1,48.9,34,29.85,10.0,NNW,9.2,-,N/A,,Clear,330,2013-09-02 15:53:00
10:53 AM,80.1,51.1,36,29.86,10.0,WNW,8.1,-,N/A,,Clear,300,2013-09-02 16:53:00
11:53 AM,81.0,52.0,36,29.87,10.0,WNW,8.1,-,N/A,,Clear,300,2013-09-02 17:53:00
12:53 PM,81.0,54.0,39,29.87,10.0,NNW,8.1,-,N/A,,Clear,330,2013-09-02 18:53:00
1:53 PM,81.0,54.0,39,29.87,10.0,North,6.9,-,N/A,,Clear,350,2013-09-02 19:53:00
2:53 PM,84.9,53.1,33,29.86,10.0,NNW,13.8,-,N/A,,Clear,340,2013-09-02 20:53:00
3:53 PM,88.0,53.1,30,29.83,10.0,NNW,15.0,-,N/A,,Clear,330,2013-09-02 21:53:00
4:53 PM,87.1,55.0,33,29.81,10.0,NNW,19.6,25.3,N/A,,Clear,330,2013-09-02 22:53:00
5:53 PM,82.0,53.1,37,29.80,10.0,WNW,19.6,26.5,N/A,,Clear,300,2013-09-02 23:53:00
6:53 PM,79.0,55.0,44,29.81,10.0,NW,16.1,24.2,N/A,,Clear,310,2013-09-03 00:53:00
7:53 PM,72.0,61.0,68,29.88,10.0,NW,17.3,-,0.00,Rain,Light Rain,310,2013-09-03 01:53:00
8:53 PM,71.1,61.0,70,29.91,10.0,NW,11.5,-,0.00,,Overcast,320,2013-09-03 02:53:00
9:53 PM,72.0,59.0,64,29.90,10.0,NW,9.2,-,0.00,,Overcast,320,2013-09-03 03:53:00
10:53 PM,70.0,60.1,71,29.91,10.0,WNW,8.1,-,0.00,,Clear,290,2013-09-03 04:53:00
11:53 PM,68.0,61.0,78,29.92,10.0,Calm,Calm,-,N/A,,Clear,0,2013-09-03 05:53:00